Weather in Penafiel

Portugal     41°11′47″N   8°17′40″W
temp.,
°C
wind,
m/s
gust,
m/s
humid.,
%
clouds,
%
prec.,
mm/h
press.,
hPa
HPBL,
m
17 may, mon
mon1701:00+10ssw1194100 0.0 102113
04:00+9ne1196100 0.0 102112
07:00+9ne1193100 0.0 102148
10:00+16n125769 0.0 1021723
13:00+20wnw223690 0.0 10211306
16:00+20wnw544384 0.0 10201295
19:00+16w334996 0.0 1021592
22:00+12ssw1160100 0.0 102243
18 may, tue
tue1801:00+12s1261100 0.0 102296
04:00+13ssw1461100 0.0 1020168
07:00+13ssw2885100 0.1 1020408
10:00+14sw1694100 0.6 1022426
13:00+17wsw347574 0.7 10221033
16:00+20wnw554638 0.1 10221514
19:00+16wnw465887 0.1 1023742
22:00+11wsw1285100 0.0 102687
19 may, wed
wed1901:00+9nne119169 0.0 102621
04:00+8ne1194100 0.0 102628
07:00+8ene1289100 0.0 102658
10:00+16nne234412 0.0 1026714
13:00+21n3428100 0.0 10251443
16:00+23nnw332639 0.0 10241752
19:00+21nnw3642100 0.0 1024415
22:00+13ne226697 0.0 102640
20 may, thu
thu2001:00+11ene226454 0.0 102531
04:00+11ene226321 0.0 102539
07:00+11e237061 0.0 102569
10:00+18e344468 0.0 1025556
13:00+24e333398 0.0 1023961
16:00+27nne1132100 0.0 10221456
19:00+23wnw245193 0.0 1021201
22:00+16wsw0060100 0.0 102211
21 may, fri
fri2101:00+14nne0169100 0.0 102211
04:00+13ne0078100 0.0 102111
07:00+13nw0081100 0.0 102116
10:00+19wnw13504 0.0 1022575
13:00+23wnw34435 0.0 10211228
16:00+22wnw553666 0.0 10201069
19:00+19wnw34445 0.0 1020533
22:00+11wnw23725 0.0 102189